Regional Weather Roundup
Issued by NWS

Home | Current Version | Previous Version | Text Only | Print | Product List | Glossary Off
Versions: 1 2 3 4 5 6 7 8 9 10 11 12 13 14 15 16 17 18 19 20 21 22 23 24 25 26 27 28 29 30 31 32 33 34 35 36 37 38 39 40 41 42 43 44 45 46 47 48 49 50

000
ASUS43 KLOT 140306
RWRIL

ILLINOIS REGIONAL WEATHER ROUNDUP
NATIONAL WEATHER SERVICE CHICAGO/ROMEOVILLE IL
1000 PM CDT SUN JUL 13 2014

NOTE: "FAIR" INDICATES FEW OR NO CLOUDS BELOW 12,000 FEET WITH NO
SIGNIFICANT WEATHER AND/OR OBSTRUCTIONS TO VISIBILITY.

* THESE STATIONS ARE NOT UNDER NWS QUALITY CONTROL. THEY ALSO MAY NOT
  REPORT WEATHER SUCH AS PRECIPITATION OR FOG.

ILZ001-002-007-009-015-016-024-140400-
NORTHWEST ILLINOIS

CITY           SKY/WX    TMP DP  RH WIND       PRES   REMARKS
MOLINE         PTCLDY    70  64  81 CALM      29.92S
STERLING*      MOCLDY    70  66  88 W5        29.93R
SAVANNA*       CLEAR     70  60  72 CALM      29.92R
$$

ILZ003-004-008-010-011-017-018-140400-
NORTH CENTRAL ILLINOIS

CITY           SKY/WX    TMP DP  RH WIND       PRES   REMARKS
ROCKFORD       PTCLDY    70  56  61 NW7       29.93R
FREEPORT*      CLEAR     64  57  77 N3        29.96R
ROCHELLE*      MOCLDY    68  66  92 CALM      29.94R
DE KALB*       MOCLDY    69  64  85 W7        29.94R
PERU*          CLOUDY    70  65  85 W8        29.93S
$$

ILZ005-006-012>014-019>023-140400-
NORTHEAST ILLINOIS

CITY           SKY/WX    TMP DP  RH WIND       PRES   REMARKS
CHICAGO-OHARE  PTCLDY    76  64  66 W10       29.89R
CHICAGO-MIDWAY MOCLDY    77  65  66 W12       29.90R
AURORA         PTCLDY    69  65  86 W5        29.92R
LANSING*       CLOUDY    73  65  76 W6        29.91R
JOLIET*        MOCLDY    72  66  83 CALM      29.92R
WAUKEGAN       CLEAR     71  60  68 N3        29.89R
DUPAGE AIRPORT PTCLDY    73  63  70 W7        29.91R
KANKAKEE*      CLOUDY    73  69  86 W5        29.94R
WHEELING       CLEAR     78  63  59 NW9       29.90R HX  80
MORRIS*        PTCLDY    71  70  97 W3        29.91S
ROMEOVILLE*    MOCLDY    71  67  89 W6        29.92R
NORTHERLY ISL    N/A     77  62  59 W7          N/A
$$

LMZ740>746-140400-
SOUTHERN LAKE MICHIGAN

STATION/POSITION SKY/WX   TEMP    WIND        PRES    VSBY  WAVE
                          AIR SEA DIR/SP/G                  HT/PER
                          (F)     (DEG/KT/KT) (MB)    (MI)  (FT/S)
SOUTHERN BUOY              66 65  360/  4/  4 1011.8R         0
WAUKEGAN HARBOR            77     320/  7/ 11 1013.2R
HARRISON CRIB              77     240/ 14/ 17   N/A
BURNHAM HARBOR             77     240/  8/ 11   N/A
CALUMET HARBOR             77     220/  5/ 10 1013.2R
MICHIGAN CITY              76     190/ 11/ 14   N/A
$$

ILZ025>027-034>036-040-047-049-050-058-095>099-140400-
WEST-CENTRAL ILLINOIS

CITY           SKY/WX    TMP DP  RH WIND       PRES   REMARKS
QUINCY         PTCLDY    76  68  76 CALM      29.94S
GALESBURG*     CLOUDY    71  66  84 CALM      29.94S
MACOMB*        PTCLDY    72  69  91 N5        29.97R
JACKSONVILLE*  MOCLDY    75  73  91 CALM      29.94F
PITTSFIELD*    MOCLDY    76  73  91 W3        29.94F
$$

ILZ028>032-037-038-041>044-048-051>054-059>061-140400-
CENTRAL ILLINOIS

CITY           SKY/WX    TMP DP  RH WIND       PRES   REMARKS
PONTIAC        PTCLDY    73  66  78 CALM      29.94R
BLOOMINGTON    PTCLDY    73  65  76 W6        29.96R
DECATUR        CLOUDY    75  70  84 CALM      29.94S
PEORIA         PTCLDY    76  69  79 CALM      29.93S
LACON*         MOCLDY    72  67  83 CALM      29.93R
LINCOLN*       MOCLDY    74  68  82 CALM      29.91S
SPRINGFIELD    MOCLDY    74  71  91 CALM      29.93F
TAYLORVILLE    CLOUDY    73  72  94 CALM      29.93F
$$

ILZ033-039-045-046-055>057-062-063-140400-
EAST-CENTRAL ILLINOIS

CITY           SKY/WX    TMP DP  RH WIND       PRES   REMARKS
CHAMPAIGN      MOCLDY    74  71  91 S5        29.94S
RANTOUL*       MOCLDY    74  68  81 CALM      29.95R
MATTOON        CLOUDY    75  71  87 CALM      29.93S
PARIS*         MOCLDY    71  70  97 CALM      29.95R
$$

ILZ079-100>102-140400-
SOUTHWEST ILLINOIS

CITY           SKY/WX    TMP DP  RH WIND       PRES   REMARKS
ALTON          PTCLDY    75  75 100 CALM      29.93S
BELLEVILLE     CLOUDY    75  73  94 S3        29.93S FOG
CAHOKIA*       CLOUDY    74  72  93 CALM      29.93F
SPARTA*        CLOUDY    73  70  88 S5        29.95F THUNDER
$$

ILZ064>066-069>071-074>076-080>082-084>086-088>090-092>094-140400-
SOUTH-CENTRAL ILLINOIS

CITY           SKY/WX    TMP DP  RH WIND       PRES   REMARKS
CARBONDALE     LGT RAIN  75  71  87 CALM      29.94S
CAIRO*         CLEAR     85  73  67 CALM      29.94R HX  91
MARION         LGT RAIN  73  72  94 CALM      29.97S
MT. VERNON     CLOUDY    79  66  65 S9        29.96R HX  81
CENTRALIA*     CLOUDY    78  69  73 SW7       29.93F HX  81
SALEM*         CLOUDY    80  75  85 CALM      29.93S HX  85
METROPOLIS*    CLEAR     83  70  64 S3        29.95R HX  87
$$

ILZ067-068-072-073-078-083-087-091-140400-
SOUTHEAST ILLINOIS

CITY           SKY/WX    TMP DP  RH WIND       PRES   REMARKS
FLORA*         PTCLDY    79  73  80 CALM      29.94R HX  83
HARRISBURG*    TSTM      71  70  97 NW13G36   29.99R
ROBINSON*      PTCLDY    76  74  95 CALM      29.94S
CARMI*           N/A     80  70  72 MISG        N/A  HX  83
$$

ABBREVIATIONS USED IN REMARKS
   TC - TEMPERATURE IN CELSIUS
  WCI - WIND CHILL INDEX
   HX - HEAT INDEX
  VSB - VISIBILITY
$$




USA.gov is the U.S. government's official web portal to all federal, state and local government web resources and services.